Location: Unspecified
(0.0000°N, 0.0000°E)
Time: 23:13:41
(UTC+00:00)

COSMOS 1275 DEB - Visible Passes

Search period start: 14 December 2025 00:00
Search period end: 24 December 2025 00:00
Orbit: 731 x 758 km, 82.9° (Epoch: 27 October)

Date Brightness Start Highest point End Pass type
(mag) Time Alt. Az. Time Alt. Az. Time Alt. Az.
14 Dec ? 03:02:49 10° SE 03:04:15 16° SE 03:04:15 16° SE visible
14 Dec ? 04:41:26 10° SW 04:42:04 12° WSW 04:42:04 12° WSW visible
15 Dec ? 03:30:06 10° S 03:31:30 20° S 03:31:30 20° S visible
16 Dec ? 03:58:47 10° SSW 03:58:49 10° SSW 03:58:49 10° SSW visible
